Location: Colle Santa Colomba
(42.0333°N, 12.5667°E)
Time: 01:29:39
(UTC+00:00)

Meteor 2-11 Rocket - Pass Details

Date: 25 October 2021
Orbit: 938 x 958 km, 82.5° (Epoch: 05 December)

Event Time Altitude Azimuth Distance (km) Brightness Sun altitude
Rises 18:06:24 0° 183° (S) 3,622 7.5 -21.7°
Reaches altitude 10° 18:08:53 10° 182° (S) 2,680 6.8 -22.1°
Maximum altitude 18:15:02 82° 96° (E) 972 4.3 -23.3°
Drops below altitude 10° 18:21:12 10° 10° (N) 2,693 6.8 -24.4°
Sets 18:23:42 0° 10° (N) 3,640 7.5 -24.9°
